Regional Weather Roundup
Issued by NWS

Home | Current Version | Previous Version | Graphics & Text | Print | Product List | Glossary On
Versions: 1 2 3 4 5 6 7 8 9 10 11 12 13 14 15 16 17 18 19 20 21 22 23 24 25 26 27 28 29 30 31 32 33 34 35 36 37 38 39 40 41 42 43 44 45 46 47 48 49 50
000
ASUS45 KABQ 052010
RWRNM
WEATHER ROUNDUP FOR NEW MEXICO
NATIONAL WEATHER SERVICE ALBUQUERQUE NM
100 PM MST THU MAR 05 2015

NOTE: "FAIR" MEANS FEW OR NO CLOUDS BELOW 12,000 FEET AGL WITH NO
       SIGNIFICANT WEATHER OR OBSTRUCTIONS TO VISION.

      THIS PRODUCT IS RELEASED AS TWO VERSIONS.  ONE VERSION NEAR
      THE TOP OF THE HOUR CONTAINING PRELIMINARY DATA FROM ALBUQUERQUE
      AND OTHER STATIONS.  A FINAL VERSION WITH ADDITIONAL DATA IS
      ISSUED ABOUT 10 MINUTES AFTER THE HOUR.

NMZ501-503-504-510>518-052100-
NORTHWEST PLATEAU/NORTHCENTRAL MOUNTAINS

CITY           SKY/WX    TMP DP  RH WIND       PRES   REMARKS
FARMINGTON     SUNNY     42  13  30 VRB5      30.36F
LOS ALAMOS     SUNNY     37  13  37 S5        30.33F WCI  33
SANTA FE       SUNNY     42   7  23 VRB7      30.32F
TAOS           SUNNY     34   7  32 CALM      30.34S
ANGEL FIRE     FAIR      33   3  28 W20       30.27F WCI  22

$$
NMZ402-403-502-505>509-052100-
WESTCENTRAL MOUNTAINS/SOUTHWEST MOUNTAINS

CITY           SKY/WX    TMP DP  RH WIND       PRES   REMARKS
GALLUP         SUNNY     45  15  30 NW5       30.36F
GRANTS         MOSUNNY   48   0  14 N7        30.36F
SILVER CITY    SUNNY     48  14  25 SE6       30.36F

$$
NMZ407-409-411-412-052100-
SOUTHERN DESERTS

CITY           SKY/WX    TMP DP  RH WIND       PRES   REMARKS
LORDSBURG      FAIR      52  19  28 SE12G26   30.34F
DEMING         SUNNY     49  23  36 SE13G21   30.37F
LAS CRUCES     SUNNY     46  21  36 SE8       30.40F
HOLLOMAN AFB   SUNNY     43  24  46 S8        30.39F
ALAMOGORDO     SUNNY     43  23  45 W5        30.41F
T OR C         SUNNY     46  15  28 SW3       30.36F

$$
NMZ519>523-052100-
CENTRAL VALLEYS/CENTRAL HIGHLANDS

CITY           SKY/WX    TMP DP  RH WIND       PRES   REMARKS
ALBUQUERQUE    SUNNY     43  14  31 E5        30.37F
DOUBLE EAGLE   SUNNY     43   9  24 W5        30.37F
MORIARTY ARPT  FAIR      47   6  18 NW7G16    30.33F
CLINES CORNERS SUNNY     43   8  23 NW16G24   30.29F
BELEN          FAIR      46  13  25 S5        30.37F
SOCORRO          N/A     46  15  28 NW3       30.37F

$$
NMZ524>526-539-540-052100-
SOUTHCENTRAL MOUNTAINS

CITY           SKY/WX    TMP DP  RH WIND       PRES   REMARKS
RUIDOSO        SUNNY     39  25  56 N7        30.35F WCI  34

$$
NMZ527>531-052100-
NORTHEAST HIGHLANDS/NORTHEAST PLAINS

CITY           SKY/WX    TMP DP  RH WIND       PRES   REMARKS
LAS VEGAS      SUNNY     36  25  64 S15       30.27F WCI  27
RATON          SUNNY     32  14  47 VRB6      30.25F WCI  26
CLAYTON        SUNNY     39  20  46 S15       30.30F WCI  31

$$
NMZ532>537-052100-
EASTCENTRAL PLAINS

CITY           SKY/WX    TMP DP  RH WIND       PRES   REMARKS
TUCUMCARI      SUNNY     42  26  53 S12       30.35F
CANNON AFB     SUNNY     38  22  52 SW14G20   30.39F WCI  30
CLOVIS AIRPORT SUNNY     39  21  48 SW16      30.39F WCI  30

$$
NMZ028-029-538-052100-
SOUTHEAST PLAINS

CITY           SKY/WX    TMP DP  RH WIND       PRES   REMARKS
ROSWELL        SUNNY     39  23  52 S9        30.45F WCI  33
ARTESIA        SUNNY     37  21  52 S6G13     30.47F WCI  33
CARLSBAD       CLOUDY    38  23  55 SE9       30.48F WCI  31
HOBBS          MOSUNNY   37  23  56 S6        30.48F WCI  33


$$


USA.gov is the U.S. government's official web portal to all federal, state and local government web resources and services.